Time,TemperatureF,DewpointF,PressureIn,WindDirection,WindDirectionDegrees,WindSpeedMPH,WindSpeedGustMPH,Humidity,HourlyPrecipIn,Conditions,Clouds,dailyrainin,SoftwareType,DateUTC
2013-01-08 00:01:00,46.0,43.0,30.15,South,190,1.0,-999.0,89,-99.99,,,-99.99,,2013-01-08 08:01:00,
2013-01-08 00:11:00,46.0,43.0,30.15,South,190,1.0,-999.0,89,-99.99,,,-99.99,,2013-01-08 08:11:00,
2013-01-08 00:22:00,46.0,43.0,30.15,SSE,167,2.0,-999.0,89,-99.99,,,-99.99,,2013-01-08 08:22:00,
2013-01-08 00:32:00,46.0,43.0,30.15,South,175,2.0,-999.0,89,-99.99,,,-99.99,,2013-01-08 08:32:00,
2013-01-08 00:42:00,46.0,43.0,30.15,South,175,2.0,-999.0,89,-99.99,,,-99.99,,2013-01-08 08:42:00,
2013-01-08 00:52:00,46.0,43.0,30.15,SSW,192,2.0,-999.0,90,-99.99,,,-99.99,,2013-01-08 08:52:00,
2013-01-08 01:02:00,46.0,43.0,30.15,South,184,1.0,-999.0,90,-99.99,,,-99.99,,2013-01-08 09:02:00,
2013-01-08 01:11:00,46.0,43.0,30.15,South,184,1.0,-999.0,90,-99.99,,,-99.99,,2013-01-08 09:11:00,
2013-01-08 01:22:00,46.0,43.0,30.14,SSW,193,3.0,-999.0,90,-99.99,,,-99.99,,2013-01-08 09:22:00,
2013-01-08 01:32:00,46.0,43.0,30.14,SSW,202,2.0,-999.0,90,-99.99,,,-99.99,,2013-01-08 09:32:00,
2013-01-08 01:42:00,46.0,43.0,30.14,SSW,202,2.0,-999.0,90,-99.99,,,-99.99,,2013-01-08 09:42:00,
2013-01-08 01:52:00,46.0,43.0,30.14,SSE,163,3.0,-999.0,90,-99.99,,,-99.99,,2013-01-08 09:52:00,
2013-01-08 02:02:00,46.0,43.0,30.14,South,177,4.0,-999.0,90,-99.99,,,-99.99,,2013-01-08 10:02:00,
2013-01-08 02:12:00,46.0,43.0,30.14,South,177,4.0,-999.0,90,-99.99,,,-99.99,,2013-01-08 10:12:00,
2013-01-08 02:22:00,45.0,42.0,30.14,SSE,148,4.0,-999.0,90,-99.99,,,-99.99,,2013-01-08 10:22:00,
2013-01-08 02:32:00,45.0,42.0,30.13,South,179,4.0,-999.0,90,-99.99,,,-99.99,,2013-01-08 10:32:00,
2013-01-08 02:42:00,45.0,42.0,30.13,South,179,4.0,-999.0,90,-99.99,,,-99.99,,2013-01-08 10:42:00,
2013-01-08 02:52:00,45.0,42.0,30.14,South,183,5.0,-999.0,90,-99.99,,,-99.99,,2013-01-08 10:52:00,
2013-01-08 03:02:00,45.0,42.0,30.14,SSW,209,5.0,-999.0,90,-99.99,,,-99.99,,2013-01-08 11:02:00,
2013-01-08 03:11:00,45.0,42.0,30.14,SSW,209,5.0,-999.0,90,-99.99,,,-99.99,,2013-01-08 11:11:00,
2013-01-08 03:22:00,45.0,42.0,30.14,SSE,160,4.0,-999.0,90,-99.99,,,-99.99,,2013-01-08 11:22:00,
2013-01-08 03:32:00,45.0,42.0,30.14,SSE,157,3.0,-999.0,90,-99.99,,,-99.99,,2013-01-08 11:32:00,
2013-01-08 03:42:00,45.0,42.0,30.14,SSE,157,3.0,-999.0,90,-99.99,,,-99.99,,2013-01-08 11:42:00,
2013-01-08 03:53:00,45.0,42.0,30.13,South,178,2.0,-999.0,90,-99.99,,,-99.99,,2013-01-08 11:53:00,
2013-01-08 04:02:00,45.0,43.0,30.12,SSW,192,3.0,-999.0,91,-99.99,,,-99.99,,2013-01-08 12:02:00,
2013-01-08 04:12:00,45.0,43.0,30.12,SSW,192,3.0,-999.0,91,-99.99,,,-99.99,,2013-01-08 12:12:00,
2013-01-08 04:22:00,45.0,43.0,30.12,South,182,3.0,-999.0,91,-99.99,,,-99.99,,2013-01-08 12:22:00,
2013-01-08 04:32:00,45.0,43.0,30.12,South,187,1.0,-999.0,91,-99.99,,,-99.99,,2013-01-08 12:32:00,
2013-01-08 04:42:00,45.0,43.0,30.12,South,187,1.0,-999.0,91,-99.99,,,-99.99,,2013-01-08 12:42:00,
2013-01-08 04:53:00,45.0,43.0,30.12,SSW,205,1.0,-999.0,91,-99.99,,,-99.99,,2013-01-08 12:53:00,
2013-01-08 05:02:00,45.0,43.0,30.11,South,180,3.0,-999.0,91,-99.99,,,-99.99,,2013-01-08 13:02:00,
2013-01-08 05:12:00,45.0,43.0,30.11,South,180,3.0,-999.0,91,-99.99,,,-99.99,,2013-01-08 13:12:00,
2013-01-08 05:22:00,45.0,43.0,30.11,SSE,165,3.0,-999.0,91,-99.99,,,-99.99,,2013-01-08 13:22:00,
2013-01-08 05:32:00,45.0,43.0,30.11,SSW,200,3.0,-999.0,91,-99.99,,,-99.99,,2013-01-08 13:32:00,
2013-01-08 05:42:00,45.0,43.0,30.11,SSW,200,3.0,-999.0,91,-99.99,,,-99.99,,2013-01-08 13:42:00,
2013-01-08 05:53:00,45.0,43.0,30.10,South,186,3.0,-999.0,91,-99.99,,,-99.99,,2013-01-08 13:53:00,
2013-01-08 06:02:00,45.0,43.0,30.10,South,176,2.0,-999.0,92,-99.99,,,-99.99,,2013-01-08 14:02:00,
2013-01-08 06:12:00,45.0,43.0,30.10,South,176,2.0,-999.0,92,-99.99,,,-99.99,,2013-01-08 14:12:00,
2013-01-08 06:22:00,45.0,43.0,30.10,South,176,2.0,-999.0,92,-99.99,,,-99.99,,2013-01-08 14:22:00,
2013-01-08 06:32:00,44.0,42.0,30.09,South,176,3.0,-999.0,93,-99.99,,,-99.99,,2013-01-08 14:32:00,
2013-01-08 06:42:00,44.0,42.0,30.09,South,176,3.0,-999.0,93,-99.99,,,-99.99,,2013-01-08 14:42:00,
2013-01-08 06:53:00,44.0,42.0,30.08,SSW,210,3.0,-999.0,93,-99.99,,,-99.99,,2013-01-08 14:53:00,
2013-01-08 07:02:00,43.0,41.0,30.07,South,172,1.0,-999.0,94,-99.99,,,-99.99,,2013-01-08 15:02:00,
2013-01-08 07:12:00,43.0,41.0,30.07,South,172,1.0,-999.0,94,-99.99,,,-99.99,,2013-01-08 15:12:00,
2013-01-08 07:22:00,43.0,41.0,30.05,South,172,0.0,-999.0,94,-99.99,,,-99.99,,2013-01-08 15:22:00,
2013-01-08 07:32:00,42.0,41.0,30.06,South,172,0.0,-999.0,95,-99.99,,,-99.99,,2013-01-08 15:32:00,
2013-01-08 07:42:00,42.0,41.0,30.06,South,172,0.0,-999.0,95,-99.99,,,-99.99,,2013-01-08 15:42:00,
2013-01-08 07:53:00,42.0,41.0,30.06,South,172,0.0,-999.0,95,-99.99,,,-99.99,,2013-01-08 15:53:00,
2013-01-08 08:02:00,42.0,41.0,30.05,South,172,0.0,-999.0,95,-99.99,,,-99.99,,2013-01-08 16:02:00,
2013-01-08 08:12:00,42.0,41.0,30.05,South,172,0.0,-999.0,95,-99.99,,,-99.99,,2013-01-08 16:12:00,
2013-01-08 08:22:00,42.0,41.0,30.05,South,172,0.0,-999.0,95,-99.99,,,-99.99,,2013-01-08 16:22:00,
2013-01-08 08:32:00,42.0,41.0,30.04,South,172,0.0,-999.0,95,-99.99,,,-99.99,,2013-01-08 16:32:00,
2013-01-08 08:42:00,42.0,41.0,30.04,South,172,0.0,-999.0,95,-99.99,,,-99.99,,2013-01-08 16:42:00,
2013-01-08 08:52:00,41.0,40.0,30.03,South,172,0.0,-999.0,95,-99.99,,,-99.99,,2013-01-08 16:52:00,
2013-01-08 09:02:00,41.0,40.0,30.04,South,172,0.0,-999.0,96,-99.99,,,-99.99,,2013-01-08 17:02:00,
2013-01-08 09:12:00,41.0,40.0,30.04,South,172,0.0,-999.0,96,-99.99,,,-99.99,,2013-01-08 17:12:00,
2013-01-08 09:22:00,41.0,40.0,30.03,South,172,0.0,-999.0,96,-99.99,,,-99.99,,2013-01-08 17:22:00,
2013-01-08 09:33:00,41.0,40.0,30.03,South,172,0.0,-999.0,96,-99.99,,,-99.99,,2013-01-08 17:33:00,
2013-01-08 09:42:00,41.0,40.0,30.03,South,172,0.0,-999.0,96,-99.99,,,-99.99,,2013-01-08 17:42:00,
2013-01-08 09:53:00,41.0,40.0,30.01,South,173,0.0,-999.0,96,-99.99,,,-99.99,,2013-01-08 17:53:00,
2013-01-08 10:03:00,41.0,40.0,30.00,South,172,0.0,-999.0,96,-99.99,,,-99.99,,2013-01-08 18:03:00,
2013-01-08 10:12:00,41.0,40.0,30.00,South,172,0.0,-999.0,96,-99.99,,,-99.99,,2013-01-08 18:12:00,
2013-01-08 10:22:00,41.0,40.0,29.99,South,172,0.0,-999.0,96,-99.99,,,-99.99,,2013-01-08 18:22:00,
2013-01-08 10:32:00,41.0,40.0,29.98,SSE,148,1.0,-999.0,96,-99.99,,,-99.99,,2013-01-08 18:32:00,
2013-01-08 10:43:00,41.0,40.0,29.98,SSE,148,1.0,-999.0,96,-99.99,,,-99.99,,2013-01-08 18:43:00,
2013-01-08 10:53:00,41.0,40.0,29.98,SSE,150,1.0,-999.0,96,-99.99,,,-99.99,,2013-01-08 18:53:00,
2013-01-08 11:02:00,41.0,40.0,29.96,SSE,150,1.0,-999.0,96,-99.99,,,-99.99,,2013-01-08 19:02:00,
2013-01-08 11:11:00,41.0,40.0,29.96,SSE,150,1.0,-999.0,96,-99.99,,,-99.99,,2013-01-08 19:11:00,
2013-01-08 11:22:00,42.0,41.0,29.95,SSE,151,1.0,-999.0,96,-99.99,,,-99.99,,2013-01-08 19:22:00,
2013-01-08 11:32:00,42.0,41.0,29.93,SSE,151,0.0,-999.0,96,-99.99,,,-99.99,,2013-01-08 19:32:00,
2013-01-08 11:42:00,42.0,41.0,29.93,SSE,151,0.0,-999.0,96,-99.99,,,-99.99,,2013-01-08 19:42:00,
2013-01-08 11:53:00,42.0,41.0,29.93,SSE,151,1.0,-999.0,96,-99.99,,,-99.99,,2013-01-08 19:53:00,
2013-01-08 12:02:00,42.0,41.0,29.93,SSE,151,0.0,-999.0,96,-99.99,,,-99.99,,2013-01-08 20:02:00,
2013-01-08 12:12:00,42.0,41.0,29.93,SSE,151,0.0,-999.0,96,-99.99,,,-99.99,,2013-01-08 20:12:00,
2013-01-08 12:22:00,42.0,41.0,29.91,SSW,198,0.0,-999.0,96,-99.99,,,-99.99,,2013-01-08 20:22:00,
2013-01-08 12:32:00,43.0,42.0,29.91,SSE,149,2.0,-999.0,96,-99.99,,,-99.99,,2013-01-08 20:32:00,
2013-01-08 12:42:00,43.0,42.0,29.91,SSE,149,2.0,-999.0,96,-99.99,,,-99.99,,2013-01-08 20:42:00,
2013-01-08 12:53:00,43.0,42.0,29.90,SSE,168,2.0,-999.0,96,-99.99,,,-99.99,,2013-01-08 20:53:00,
2013-01-08 13:02:00,44.0,43.0,29.90,SSE,155,3.0,-999.0,96,-99.99,,,-99.99,,2013-01-08 21:02:00,
2013-01-08 13:12:00,44.0,43.0,29.90,SSE,155,3.0,-999.0,96,-99.99,,,-99.99,,2013-01-08 21:12:00,
2013-01-08 13:22:00,44.0,43.0,29.90,SSE,155,3.0,-999.0,96,-99.99,,,-99.99,,2013-01-08 21:22:00,
2013-01-08 13:32:00,46.0,45.0,29.87,South,174,5.0,-999.0,96,-99.99,,,-99.99,,2013-01-08 21:32:00,
2013-01-08 13:42:00,46.0,45.0,29.87,South,174,5.0,-999.0,96,-99.99,,,-99.99,,2013-01-08 21:42:00,
2013-01-08 13:53:00,47.0,46.0,29.86,SE,146,7.0,-999.0,96,-99.99,,,-99.99,,2013-01-08 21:53:00,
2013-01-08 14:02:00,47.0,46.0,29.85,SSE,163,7.0,-999.0,96,-99.99,,,-99.99,,2013-01-08 22:02:00,
2013-01-08 14:12:00,47.0,46.0,29.85,SSE,163,7.0,-999.0,96,-99.99,,,-99.99,,2013-01-08 22:12:00,
2013-01-08 14:22:00,48.0,47.0,29.85,South,171,7.0,-999.0,96,-99.99,,,-99.99,,2013-01-08 22:22:00,
2013-01-08 14:32:00,48.0,47.0,29.86,SSW,193,4.0,-999.0,96,-99.99,,,-99.99,,2013-01-08 22:32:00,
2013-01-08 14:42:00,48.0,47.0,29.86,SSW,193,4.0,-999.0,96,-99.99,,,-99.99,,2013-01-08 22:42:00,
2013-01-08 14:53:00,48.0,47.0,29.85,South,170,5.0,-999.0,96,-99.99,,,-99.99,,2013-01-08 22:53:00,
2013-01-08 15:02:00,48.0,47.0,29.85,South,169,4.0,-999.0,96,-99.99,,,-99.99,,2013-01-08 23:02:00,
2013-01-08 15:12:00,48.0,47.0,29.85,South,169,4.0,-999.0,96,-99.99,,,-99.99,,2013-01-08 23:12:00,
2013-01-08 15:22:00,48.0,47.0,29.86,SE,142,5.0,-999.0,96,-99.99,,,-99.99,,2013-01-08 23:22:00,
2013-01-08 15:32:00,49.0,48.0,29.85,South,178,4.0,-999.0,96,-99.99,,,-99.99,,2013-01-08 23:32:00,
2013-01-08 15:42:00,49.0,48.0,29.85,South,178,4.0,-999.0,96,-99.99,,,-99.99,,2013-01-08 23:42:00,
2013-01-08 15:53:00,49.0,48.0,29.85,South,172,4.0,-999.0,96,-99.99,,,-99.99,,2013-01-08 23:53:00,
2013-01-08 16:02:00,49.0,48.0,29.83,South,173,4.0,-999.0,96,-99.99,,,-99.99,,2013-01-09 00:02:00,
2013-01-08 16:12:00,49.0,48.0,29.83,South,173,4.0,-999.0,96,-99.99,,,-99.99,,2013-01-09 00:12:00,
2013-01-08 16:22:00,49.0,48.0,29.82,WSW,242,6.0,-999.0,96,-99.99,,,-99.99,,2013-01-09 00:22:00,
2013-01-08 16:32:00,49.0,48.0,29.81,SSE,163,8.0,-999.0,96,-99.99,,,-99.99,,2013-01-09 00:32:00,
2013-01-08 16:42:00,49.0,48.0,29.81,SSE,163,8.0,-999.0,96,-99.99,,,-99.99,,2013-01-09 00:42:00,
2013-01-08 16:52:00,49.0,48.0,29.81,SSW,200,7.0,-999.0,96,-99.99,,,-99.99,,2013-01-09 00:52:00,
2013-01-08 17:02:00,50.0,49.0,29.80,SE,130,8.0,-999.0,96,-99.99,,,-99.99,,2013-01-09 01:02:00,
2013-01-08 17:12:00,50.0,49.0,29.80,SE,130,8.0,-999.0,96,-99.99,,,-99.99,,2013-01-09 01:12:00,
2013-01-08 17:22:00,50.0,49.0,29.80,South,169,7.0,-999.0,96,-99.99,,,-99.99,,2013-01-09 01:22:00,
2013-01-08 17:32:00,50.0,49.0,29.79,SSW,196,9.0,-999.0,97,-99.99,,,-99.99,,2013-01-09 01:32:00,
2013-01-08 17:42:00,50.0,49.0,29.79,SSW,196,9.0,-999.0,97,-99.99,,,-99.99,,2013-01-09 01:42:00,
2013-01-08 17:52:00,50.0,49.0,29.79,ESE,121,8.0,-999.0,97,-99.99,,,-99.99,,2013-01-09 01:52:00,
2013-01-08 18:02:00,50.0,49.0,29.79,SSE,164,9.0,-999.0,97,-99.99,,,-99.99,,2013-01-09 02:02:00,
2013-01-08 18:11:00,50.0,49.0,29.79,SSE,164,9.0,-999.0,97,-99.99,,,-99.99,,2013-01-09 02:11:00,
2013-01-08 18:22:00,50.0,49.0,29.78,SSE,153,6.0,-999.0,97,-99.99,,,-99.99,,2013-01-09 02:22:00,
2013-01-08 18:32:00,50.0,49.0,29.78,SW,214,5.0,-999.0,97,-99.99,,,-99.99,,2013-01-09 02:32:00,
2013-01-08 18:42:00,50.0,49.0,29.78,SW,214,5.0,-999.0,97,-99.99,,,-99.99,,2013-01-09 02:42:00,
2013-01-08 18:52:00,50.0,50.0,29.77,SSE,149,6.0,-999.0,100,-99.99,,,-99.99,,2013-01-09 02:52:00,
2013-01-08 19:02:00,50.0,49.0,29.76,SE,142,7.0,-999.0,97,-99.99,,,-99.99,,2013-01-09 03:02:00,
2013-01-08 19:11:00,50.0,49.0,29.76,SE,142,7.0,-999.0,97,-99.99,,,-99.99,,2013-01-09 03:11:00,
2013-01-08 19:22:00,50.0,49.0,29.76,SE,142,7.0,-999.0,97,-99.99,,,-99.99,,2013-01-09 03:22:00,
2013-01-08 19:32:00,50.0,49.0,29.76,SSE,164,8.0,-999.0,96,-99.99,,,-99.99,,2013-01-09 03:32:00,
2013-01-08 19:42:00,50.0,49.0,29.76,SSE,164,8.0,-999.0,96,-99.99,,,-99.99,,2013-01-09 03:42:00,
2013-01-08 19:52:00,50.0,49.0,29.75,South,171,6.0,-999.0,96,-99.99,,,-99.99,,2013-01-09 03:52:00,
2013-01-08 20:02:00,51.0,50.0,29.75,South,186,7.0,-999.0,95,-99.99,,,-99.99,,2013-01-09 04:02:00,
2013-01-08 20:12:00,51.0,50.0,29.75,South,186,7.0,-999.0,95,-99.99,,,-99.99,,2013-01-09 04:12:00,
2013-01-08 20:22:00,51.0,49.0,29.74,South,171,10.0,-999.0,94,-99.99,,,-99.99,,2013-01-09 04:22:00,
2013-01-08 20:32:00,51.0,49.0,29.74,South,171,10.0,-999.0,94,-99.99,,,-99.99,,2013-01-09 04:32:00,
2013-01-08 20:42:00,52.0,50.0,29.75,SE,143,8.0,-999.0,92,-99.99,,,-99.99,,2013-01-09 04:42:00,
2013-01-08 20:52:00,52.0,50.0,29.75,SE,143,8.0,-999.0,92,-99.99,,,-99.99,,2013-01-09 04:52:00,
2013-01-08 21:03:00,51.0,49.0,29.74,South,178,10.0,-999.0,92,-99.99,,,-99.99,,2013-01-09 05:03:00,
2013-01-08 21:12:00,51.0,49.0,29.74,South,178,10.0,-999.0,92,-99.99,,,-99.99,,2013-01-09 05:12:00,
2013-01-08 21:22:00,51.0,49.0,29.73,SW,229,8.0,-999.0,92,-99.99,,,-99.99,,2013-01-09 05:22:00,
2013-01-08 21:33:00,51.0,49.0,29.73,South,171,8.0,-999.0,92,-99.99,,,-99.99,,2013-01-09 05:33:00,
2013-01-08 21:42:00,51.0,49.0,29.73,South,171,8.0,-999.0,92,-99.99,,,-99.99,,2013-01-09 05:42:00,
2013-01-08 21:52:00,51.0,49.0,29.73,SSE,164,8.0,-999.0,92,-99.99,,,-99.99,,2013-01-09 05:52:00,
2013-01-08 22:02:00,51.0,49.0,29.73,SSW,198,8.0,-999.0,93,-99.99,,,-99.99,,2013-01-09 06:02:00,
2013-01-08 22:12:00,51.0,49.0,29.73,SSW,198,8.0,-999.0,93,-99.99,,,-99.99,,2013-01-09 06:12:00,
2013-01-08 22:22:00,50.0,48.0,29.73,SSE,161,6.0,-999.0,94,-99.99,,,-99.99,,2013-01-09 06:22:00,
2013-01-08 22:32:00,50.0,49.0,29.73,South,186,8.0,-999.0,95,-99.99,,,-99.99,,2013-01-09 06:32:00,
2013-01-08 22:42:00,50.0,49.0,29.73,South,186,8.0,-999.0,95,-99.99,,,-99.99,,2013-01-09 06:42:00,
2013-01-08 22:52:00,50.0,49.0,29.73,SE,140,7.0,-999.0,95,-99.99,,,-99.99,,2013-01-09 06:52:00,
2013-01-08 23:02:00,49.0,48.0,29.73,SSE,167,6.0,-999.0,96,-99.99,,,-99.99,,2013-01-09 07:02:00,
2013-01-08 23:11:00,49.0,48.0,29.73,SSE,167,6.0,-999.0,96,-99.99,,,-99.99,,2013-01-09 07:11:00,
2013-01-08 23:22:00,49.0,48.0,29.73,South,181,7.0,-999.0,96,-99.99,,,-99.99,,2013-01-09 07:22:00,
2013-01-08 23:32:00,49.0,48.0,29.72,SSW,202,7.0,-999.0,96,-99.99,,,-99.99,,2013-01-09 07:32:00,
2013-01-08 23:42:00,49.0,48.0,29.72,SSW,202,7.0,-999.0,96,-99.99,,,-99.99,,2013-01-09 07:42:00,
2013-01-08 23:52:00,49.0,48.0,29.73,SSE,156,6.0,-999.0,96,-99.99,,,-99.99,,2013-01-09 07:52:00,